Location: ????????
(41.2031°N, 22.5756°E)
Time: 15:45:49
(UTC+00:00)

Cosmos 1933 Rocket - Pass Details

Date: 01 December 2020
Orbit: 606 x 631 km, 82.5° (Epoch: 20 January)

Event Time Altitude Azimuth Distance (km) Brightness Sun altitude
Rises 16:00:34 0° 359° (N) 2,933 6.8 -11.0°
Reaches altitude 10° 16:02:56 10° 8° (N) 2,019 5.9 -11.4°
Maximum altitude 16:07:08 39° 77° (ENE) 949 4.0 -12.1°
Drops below altitude 10° 16:11:18 10° 147° (SSE) 1,997 6.0 -12.9°
Sets 16:13:38 0° 155° (SSE) 2,896 6.9 -13.3°
